Stations météo

réclame
Mon MeteoGroup
Vidsel, Suède (2154): Température de l'air & dewpoint: 17.04.2018 03:00:00 - 23.04.2018 03:00:00 (CEST)Vidsel, Suède (2154): Vitesse du vent & gusts: 17.04.2018 03:00:00 - 23.04.2018 03:00:00 (CEST)Vidsel, Suède (2154): Direction du vent: 17.04.2018 03:00:00 - 23.04.2018 03:00:00 (CEST)Vidsel, Suède (2154): reduced air pressure: 17.04.2018 03:00:00 - 23.04.2018 03:00:00 (CEST)Vidsel, Suède (2154): visibility: 17.04.2018 03:00:00 - 23.04.2018 03:00:00 (CEST)Vidsel, Suède (2154): Quantités de précipitations: 17.04.2018 03:00:00 - 23.04.2018 03:00:00 (CEST)
Date & Time tt [°C] td [°C] ff [km/h] ff [knt] fx [km/h] fx [knt] dd ppp [hPa] vv [km] rr [mm]
23.04.2018 03:00:00 -1,9 -2,3 0 0 4 2 N 1013,0 10 0,0
23.04.2018 02:00:00 -2,2 -2,5 0 0 4 2 N 1013,3 10 0,0
23.04.2018 01:00:00 -2,1 -2,7 2 1 4 2 - 1013,5 10 0,0
23.04.2018 00:00:00 -0,3 -1,0 0 0 4 2 N 1013,3 10 0,0
22.04.2018 23:00:00 0,6 -0,5 2 1 7 4 - 1013,4 10 0,0
22.04.2018 22:00:00 2,9 0,6 2 1 7 4 SSE 1013,2 10 0,0
22.04.2018 21:00:00 4,3 1,5 4 2 7 4 SE 1013,1 10 0,0
22.04.2018 20:00:00 6,5 2,2 7 4 14 8 ESE 1012,7 50 0,0
22.04.2018 19:00:00 7,4 1,9 9 5 18 10 ESE 1012,6 10 0,0
22.04.2018 18:00:00 7,2 1,9 14 8 18 10 SSE 1012,5 45 0,0
22.04.2018 17:00:00 7,9 3,0 11 6 14 8 ESE 1012,6 45 0,0
22.04.2018 16:00:00 8,6 2,6 9 5 14 8 E 1012,6 10 0,0
22.04.2018 15:00:00 8,1 2,1 8 4 14 8 ESE 1012,5 10 0,0
22.04.2018 14:00:00 8,0 2,7 5 3 11 6 ESE 1012,7 10 0,0
22.04.2018 13:00:00 7,0 2,7 2 1 18 10 - 1013,0 10 0,0
22.04.2018 12:00:00 4,8 1,6 5 3 14 8 WSW 1013,1 10 0,0
22.04.2018 11:00:00 3,5 1,1 5 3 14 8 SW 1013,2 10 0,0
22.04.2018 10:00:00 2,2 0,4 5 3 11 6 WSW 1013,1 10 0,0
22.04.2018 09:00:00 1,1 -0,1 5 3 11 6 SSW 1012,8 10 0,0
22.04.2018 08:00:00 0,3 -0,6 4 2 7 4 SW 1012,4 35 0,0
22.04.2018 07:00:00 0,0 -0,6 4 2 7 4 SW 1012,0 30 0,0
22.04.2018 06:00:00 -0,1 -0,7 5 3 11 6 W 1011,8 10 0,0
22.04.2018 05:00:00 -0,2 -0,3 4 2 7 4 W 1011,3 19 0,0
22.04.2018 04:00:00 -0,2 -0,3 2 1 4 2 - 1010,9 8 0,0
22.04.2018 03:00:00 -0,1 -0,4 2 1 4 2 WNW 1010,0 8 0,0
22.04.2018 02:00:00 -0,1 -0,4 0 0 4 2 N 1009,3 10 0,0
22.04.2018 01:00:00 0,3 0,0 2 1 4 2 - 1008,7 10 0,0
22.04.2018 00:00:00 0,2 0,1 2 1 4 2 - 1007,8 7 0,0
21.04.2018 23:00:00 0,1 0,0 2 1 7 4 SE 1007,1 10 0,0
21.04.2018 22:00:00 0,1 -0,2 4 2 7 4 SE 1006,0 10 0,2
21.04.2018 21:00:00 0,3 0,0 5 3 11 6 E 1005,4 10 0,1
21.04.2018 20:00:00 0,6 0,3 7 4 14 8 E 1004,5 10 0,3
21.04.2018 19:00:00 0,8 0,5 11 6 14 8 E 1003,8 9 0,7
21.04.2018 18:00:00 1,5 1,1 11 6 14 8 ESE 1003,1 9 0,6
21.04.2018 17:00:00 1,9 1,3 11 6 14 8 ESE 1002,5 11 1,0
21.04.2018 16:00:00 2,2 1,6 9 5 14 8 E 1001,9 8 0,2
21.04.2018 15:00:00 2,2 1,5 9 5 14 8 E 1001,5 7 0,2
21.04.2018 14:00:00 2,0 1,3 9 5 14 8 E 1001,4 10 0,2
21.04.2018 13:00:00 1,7 1,1 11 6 18 10 E 1001,1 10 0,0
21.04.2018 12:00:00 1,7 1,1 9 5 18 10 ESE 1000,5 10 0,0
21.04.2018 11:00:00 1,8 1,2 11 6 18 10 E 1000,0 10 0,0
21.04.2018 10:00:00 1,7 1,1 11 6 14 8 E 999,6 10 0,0
21.04.2018 09:00:00 1,3 0,9 8 4 11 6 E 999,2 10 0,0
21.04.2018 08:00:00 1,3 0,9 4 2 7 4 ESE 999,2 45 0,0
21.04.2018 07:00:00 0,8 0,5 4 2 7 4 - 999,2 10 0,0
21.04.2018 06:00:00 0,3 0,0 4 2 7 4 E 999,5 10 0,0
21.04.2018 05:00:00 0,4 0,1 4 2 7 4 E 999,9 30 0,4
21.04.2018 04:00:00 0,4 0,1 4 2 11 6 - 1000,3 5 0,2
21.04.2018 03:00:00 0,8 0,2 4 2 14 8 E 1000,7 45 0,0
21.04.2018 02:00:00 1,5 0,0 8 4 11 6 ESE 1001,2 10 0,0
21.04.2018 01:00:00 0,2 -1,4 2 1 7 4 - 1001,4 10 0,0
21.04.2018 00:00:00 0,8 -1,4 2 1 7 4 W 1001,7 10 0,0
20.04.2018 23:00:00 1,2 -1,4 4 2 7 4 WSW 1002,5 10 0,0
20.04.2018 22:00:00 3,5 -0,7 4 2 7 4 - 1003,4 10 0,0
20.04.2018 21:00:00 5,0 0,0 8 4 7 4 NW 1004,0 10 0,0
20.04.2018 20:00:00 7,2 0,2 7 4 14 8 W 1004,3 50 0,0
20.04.2018 19:00:00 9,6 0,2 9 5 18 10 WNW 1004,6 10 0,0
20.04.2018 18:00:00 9,4 0,6 14 8 25 14 WNW 1005,8 50 0,0
20.04.2018 17:00:00 9,4 0,8 18 10 29 16 WNW 1006,3 45 0,0
20.04.2018 16:00:00 10,0 1,1 14 8 25 14 WNW 1007,2 45 0,0
20.04.2018 15:00:00 9,8 0,9 16 9 25 14 WNW 1008,1 10 0,0
20.04.2018 14:00:00 9,8 1,4 21 11 29 16 WNW 1008,5 10 0,0
20.04.2018 13:00:00 9,9 1,8 22 12 32 18 WNW 1008,9 10 0,0
20.04.2018 12:00:00 8,7 2,0 24 13 32 18 WNW 1009,6 10 0,0
20.04.2018 11:00:00 8,6 2,8 15 8 32 18 WNW 1009,7 10 0,0
20.04.2018 10:00:00 7,6 2,9 22 12 32 18 WNW 1010,0 10 0,0
20.04.2018 09:00:00 6,9 3,9 13 7 22 12 WNW 1010,6 10 0,0
20.04.2018 08:00:00 2,7 2,4 4 2 4 2 WSW 1011,7 12 0,0
20.04.2018 07:00:00 1,1 1,0 2 1 7 4 - 1012,2 0,2 0,0
20.04.2018 06:00:00 1,0 0,7 2 1 7 4 - 1012,7 0,4 0,0
20.04.2018 05:00:00 1,4 1,1 7 4 11 6 SE 1013,5 9 0,0
20.04.2018 04:00:00 2,4 2,0 8 4 14 8 ESE 1014,4 10 0,0
20.04.2018 03:00:00 2,1 1,7 13 7 18 10 ESE 1015,7 10 1,0
20.04.2018 02:00:00 2,7 1,8 7 4 14 8 ESE 1017,2 9 1,0
20.04.2018 01:00:00 3,0 2,0 4 2 7 4 E 1018,1 6 2,0
20.04.2018 00:00:00 4,4 0,0 5 3 14 8 SE 1018,7 10 0,0
19.04.2018 23:00:00 5,4 -0,2 11 6 14 8 ESE 1019,3 50 0,0
19.04.2018 22:00:00 6,1 -0,2 9 5 14 8 E 1020,0 10 0,0
19.04.2018 21:00:00 7,5 0,0 4 2 14 8 E 1020,5 50 0,0
19.04.2018 20:00:00 9,1 0,5 11 6 14 8 SE 1020,8 45 0,0
19.04.2018 19:00:00 9,5 2,1 2 1 4 2 - 1021,4 10 0,0
19.04.2018 18:00:00 12,0 2,4 4 2 18 10 WNW 1021,6 10 0,0
19.04.2018 17:00:00 11,5 1,7 5 3 18 10 - 1022,4 10 0,0
19.04.2018 16:00:00 11,9 2,1 4 2 7 4 ESE 1022,6 10 0,0
19.04.2018 15:00:00 12,0 1,3 2 1 18 10 - 1022,9 10 0,0
19.04.2018 14:00:00 11,5 1,4 11 6 18 10 NNE 1023,2 10 0,0
19.04.2018 13:00:00 10,8 0,8 9 5 22 12 N 1023,2 10 0,0
19.04.2018 12:00:00 10,3 0,3 8 4 18 10 NNW 1022,8 10 0,0
19.04.2018 11:00:00 9,4 0,6 13 7 25 14 NW 1022,8 10 0,0
19.04.2018 10:00:00 8,9 1,6 15 8 22 12 NNW 1022,7 10 0,0
19.04.2018 09:00:00 7,2 2,1 11 6 22 12 WNW 1022,4 10 0,0
19.04.2018 08:00:00 5,1 1,6 14 8 18 10 WNW 1022,4 65 0,0
19.04.2018 07:00:00 4,6 0,9 2 1 7 4 - 1022,1 10 0,0
19.04.2018 06:00:00 3,1 -0,2 5 3 7 4 NW 1021,7 10 0,0
19.04.2018 05:00:00 3,4 -0,4 4 2 11 6 WNW 1021,4 50 0,0
19.04.2018 04:00:00 1,9 -1,5 7 4 7 4 NW 1021,0 50 0,0
19.04.2018 03:00:00 3,7 -1,3 5 3 11 6 W 1020,1 10 0,0
19.04.2018 02:00:00 3,5 -1,3 5 3 11 6 W 1019,5 10 0,0
19.04.2018 01:00:00 3,8 -1,2 9 5 11 6 WNW 1019,0 10 0,0
19.04.2018 00:00:00 4,1 -1,1 9 5 14 8 WNW 1018,5 10 0,0
18.04.2018 23:00:00 4,8 -1,2 9 5 11 6 NW 1017,9 10 0,0
18.04.2018 22:00:00 4,9 -0,9 5 3 7 4 NW 1017,2 10 0,0
18.04.2018 21:00:00 5,9 -1,3 4 2 7 4 - 1016,9 10 0,0
18.04.2018 20:00:00 7,9 -1,6 8 4 14 8 NW 1016,6 10 0,0
18.04.2018 19:00:00 10,2 -2,1 9 5 18 10 W 1016,2 10 0,0
18.04.2018 18:00:00 12,6 -2,9 8 4 18 10 WSW 1015,7 10 0,0
18.04.2018 17:00:00 13,4 -3,0 11 6 22 12 W 1015,4 10 0,0
18.04.2018 16:00:00 13,2 -3,1 9 5 18 10 SW 1015,7 10 0,0
18.04.2018 15:00:00 13,3 -3,9 11 6 18 10 SW 1016,2 10 0,0
18.04.2018 14:00:00 13,1 -3,2 13 7 22 12 SW 1016,4 10 0,0
18.04.2018 13:00:00 13,3 -3,5 9 5 22 12 SW 1016,3 10 0,0
18.04.2018 12:00:00 13,1 -2,8 8 4 22 12 - 1016,7 10 0,0
18.04.2018 11:00:00 11,7 -2,5 4 2 7 4 ESE 1017,1 10 0,0
18.04.2018 10:00:00 7,5 -3,1 0 0 4 2 N 1017,6 10 0,0
18.04.2018 09:00:00 4,6 -2,1 0 0 4 2 N 1018,2 10 0,0
18.04.2018 08:00:00 -0,1 -4,0 4 2 7 4 WNW 1018,8 10 0,0
18.04.2018 07:00:00 -2,9 -4,8 5 3 7 4 WNW 1019,2 10 0,0
18.04.2018 06:00:00 -5,8 -6,7 4 2 7 4 W 1019,4 10 0,0
18.04.2018 05:00:00 -5,4 -6,5 2 1 4 2 - 1019,6 10 0,0
18.04.2018 04:00:00 -4,4 -5,3 4 2 4 2 W 1019,5 10 0,0
18.04.2018 03:00:00 -3,9 -4,9 4 2 4 2 W 1019,5 10 0,0
18.04.2018 02:00:00 -3,6 -4,6 2 1 4 2 W 1019,6 10 0,0
18.04.2018 01:00:00 -2,9 -4,2 0 0 4 2 N 1019,7 10 0,0
18.04.2018 00:00:00 -1,8 -3,8 4 2 4 2 W 1019,5 10 0,0
17.04.2018 23:00:00 -0,5 -3,5 2 1 4 2 - 1019,3 10 0,0
17.04.2018 22:00:00 1,6 -3,1 2 1 4 2 W 1019,0 10 0,0
17.04.2018 21:00:00 4,6 -2,5 4 2 4 2 W 1018,5 10 0,0
17.04.2018 20:00:00 8,8 -2,8 4 2 4 2 - 1017,8 10 0,0
17.04.2018 19:00:00 12,3 -3,5 2 1 4 2 SE 1017,3 10 0,0
17.04.2018 18:00:00 13,0 -3,7 0 0 7 4 N 1017,2 10 0,0
17.04.2018 17:00:00 12,9 -3,8 4 2 4 2 - 1017,2 10 0,0
17.04.2018 16:00:00 13,0 -3,3 2 1 7 4 - 1017,3 10 0,0
17.04.2018 15:00:00 11,9 -3,5 5 3 14 8 NNE 1017,6 10 0,0
17.04.2018 14:00:00 11,8 -3,6 0 0 7 4 N 1017,8 82 0,0
17.04.2018 13:00:00 10,9 -3,6 2 1 11 6 - 1017,8 10 0,0
17.04.2018 12:00:00 9,9 -3,4 5 3 11 6 N 1018,0 10 0,0
17.04.2018 11:00:00 9,0 -3,6 4 2 14 8 - 1018,0 10 0,0
17.04.2018 10:00:00 7,7 -2,6 4 2 18 10 - 1017,7 10 0,0
17.04.2018 09:00:00 4,6 -2,7 9 5 14 8 WNW 1017,7 10 0,0
17.04.2018 08:00:00 3,3 -3,3 9 5 14 8 NW 1017,6 10 0,0
17.04.2018 07:00:00 0,3 -4,7 11 6 14 8 NW 1017,7 10 0,0
17.04.2018 06:00:00 -3,0 -5,2 5 3 7 4 W 1017,5 10 0,0
17.04.2018 05:00:00 -4,0 -5,7 5 3 7 4 W 1017,3 10 0,0
17.04.2018 04:00:00 -2,4 -4,6 8 4 7 4 WNW 1017,0 10 0,0
17.04.2018 03:00:00 -1,3 -3,7 2 1 11 6 - 1016,7 10 0,0

tt = Température de l'air
td = dewpoint
ff = Vitesse du vent
fx = gusts
dd = Direction du vent
ppp = reduced air pressure
vv = visibility
rr = Quantités de précipitations

stations d'obs. à proximité